NOZ82J ENGM-ENTC

Flight info

Callsign NOZ82J
Flight time 1h 36m
Altitude 390
Route RIBBE1C RIBBE DCT GIGNI DCT SOMUB DCT PENNO DCT ATWEG ATWEG2L
Aircraft B78/L-VGDW/C

Departure

Time 2026-05-04 16:19
Airport Oslo-Gardermoen International Airport (ENGM)

Arrival

Time 2026-05-04 17:55
Airport Tromsø Airport (ENTC)
Time Latitude Longitude Altitude Speed Heading
2026-05-04 15:20 60.19553 11.09907 684 ft 0 kts 106°
2026-05-04 16:06 60.19557 11.09879 676 ft 4 kts 106°
2026-05-04 16:07 60.19566 11.09820 679 ft 4 kts 109°
2026-05-04 16:07 60.19623 11.09720 676 ft 3 kts 142°
2026-05-04 16:08 60.19626 11.09716 676 ft 1 kts 139°
2026-05-04 16:08 60.19626 11.09715 683 ft 0 kts 139°
2026-05-04 16:12 60.19626 11.09740 678 ft 1 kts 70°
2026-05-04 16:12 60.19742 11.09782 683 ft 13 kts 14°
2026-05-04 16:13 60.19973 11.09919 683 ft 18 kts 18°
2026-05-04 16:13 60.20002 11.10324 684 ft 19 kts 109°
2026-05-04 16:14 60.19928 11.10836 683 ft 19 kts 105°
2026-05-04 16:14 60.19859 11.11332 682 ft 20 kts 106°
2026-05-04 16:15 60.20060 11.11662 683 ft 13 kts 30°
2026-05-04 16:16 60.20050 11.12016 685 ft 11 kts 105°
2026-05-04 16:16 60.19989 11.12173 684 ft 0 kts 197°
2026-05-04 16:18 60.19988 11.12173 684 ft 2 kts 197°
2026-05-04 16:18 60.19733 11.12024 680 ft 77 kts 195°
2026-05-04 16:19 60.16658 11.10161 1600 ft 194 kts 201°
2026-05-04 16:19 60.14091 11.08527 3145 ft 202 kts 202°
2026-05-04 16:20 60.10478 11.13970 4418 ft 259 kts 129°
2026-05-04 16:20 60.08788 11.20280 5625 ft 274 kts 91°
2026-05-04 16:21 60.12631 11.27734 7473 ft 281 kts
2026-05-04 16:22 60.16541 11.28455 9016 ft 285 kts 358°
2026-05-04 16:22 60.22629 11.29206 11024 ft 300 kts 358°
2026-05-04 16:23 60.28976 11.30154 13113 ft 311 kts 358°
2026-05-04 16:24 60.37804 11.31584 15549 ft 328 kts 355°
2026-05-04 16:25 60.42392 11.32331 16809 ft 334 kts 354°
2026-05-04 16:26 60.51773 11.33870 19166 ft 344 kts 353°
2026-05-04 16:26 60.58989 11.35054 20782 ft 351 kts 353°
2026-05-04 16:27 60.63884 11.35858 21802 ft 358 kts 353°
2026-05-04 16:28 60.71438 11.37109 23329 ft 367 kts 353°
2026-05-04 16:28 60.79146 11.38394 24553 ft 375 kts 353°
2026-05-04 16:29 60.89729 11.40163 26086 ft 386 kts 353°
2026-05-04 16:30 60.97734 11.41527 27586 ft 382 kts 353°
2026-05-04 16:31 61.03011 11.42423 28538 ft 380 kts 353°
2026-05-04 16:31 61.10897 11.43756 29825 ft 380 kts 353°
2026-05-04 16:32 61.19067 11.45117 29994 ft 404 kts 354°
2026-05-04 16:33 61.24765 11.46097 30182 ft 417 kts 355°
2026-05-04 16:33 61.30605 11.47116 30399 ft 422 kts 355°
2026-05-04 16:34 61.36445 11.48132 30582 ft 421 kts 355°
2026-05-04 16:34 61.39361 11.48480 30687 ft 417 kts 352°
2026-05-04 16:35 61.47998 11.48466 30986 ft 413 kts 350°
2026-05-04 16:35 61.56715 11.48368 31328 ft 425 kts 351°
2026-05-04 16:36 61.59653 11.48364 31432 ft 429 kts 351°
2026-05-04 16:36 61.65657 11.48389 31647 ft 433 kts 351°
2026-05-04 16:37 61.71703 11.48418 31858 ft 436 kts 351°
2026-05-04 16:37 61.74739 11.48432 31972 ft 437 kts 351°
2026-05-04 16:37 61.80831 11.48458 32179 ft 438 kts 352°
2026-05-04 16:38 61.86937 11.48482 32403 ft 439 kts 352°
2026-05-04 16:39 61.96103 11.48516 32722 ft 439 kts 352°
2026-05-04 16:39 62.02226 11.48754 32936 ft 443 kts 356°
2026-05-04 16:40 62.08377 11.50111 33169 ft 446 kts 359°
2026-05-04 16:40 62.14551 11.51720 33403 ft 447 kts 359°
2026-05-04 16:41 62.20746 11.53243 33626 ft 448 kts 359°
2026-05-04 16:41 62.29027 11.55170 33876 ft 451 kts 359°
2026-05-04 16:42 62.38417 11.57336 34147 ft 454 kts 359°
2026-05-04 16:43 62.44720 11.58800 34325 ft 457 kts 359°
2026-05-04 16:43 62.51044 11.60277 34509 ft 459 kts 359°
2026-05-04 16:43 62.54226 11.61024 34601 ft 460 kts 359°
2026-05-04 16:44 62.66986 11.64033 34995 ft 462 kts 359°
2026-05-04 16:45 62.73383 11.65552 35206 ft 463 kts 359°
2026-05-04 16:46 62.82969 11.67839 35531 ft 465 kts 360°
2026-05-04 16:46 62.89443 11.69392 35747 ft 465 kts 360°
2026-05-04 16:47 62.95845 11.70931 35936 ft 466 kts 360°
2026-05-04 16:47 63.02303 11.72496 36146 ft 467 kts
2026-05-04 16:48 63.12024 11.74863 36448 ft 470 kts
2026-05-04 16:48 63.15274 11.75657 36551 ft 471 kts
2026-05-04 16:49 63.21788 11.77256 36752 ft 472 kts
2026-05-04 16:49 63.28321 11.78866 36952 ft 472 kts
2026-05-04 16:50 63.34855 11.80627 37149 ft 476 kts
2026-05-04 16:50 63.41240 11.85099 37381 ft 483 kts 15°
2026-05-04 16:51 63.47567 11.90229 37575 ft 484 kts 15°
2026-05-04 16:51 63.50734 11.92781 37677 ft 483 kts 15°
2026-05-04 16:51 63.57064 11.97823 37892 ft 483 kts 14°
2026-05-04 16:52 63.63389 12.02829 38230 ft 479 kts 15°
2026-05-04 16:52 63.66523 12.05314 38471 ft 475 kts 15°
2026-05-04 16:53 63.72773 12.10280 38616 ft 475 kts 15°
2026-05-04 16:53 63.82130 12.17762 38722 ft 476 kts 15°
2026-05-04 16:54 63.85251 12.20272 38744 ft 477 kts 15°
2026-05-04 16:55 64.04093 12.35551 38855 ft 481 kts 15°
2026-05-04 16:56 64.19915 12.48555 38798 ft 485 kts 15°
2026-05-04 16:57 64.29449 12.56466 38708 ft 486 kts 15°
2026-05-04 16:58 64.42156 12.67103 38611 ft 488 kts 16°
2026-05-04 17:00 64.61320 12.83345 38604 ft 489 kts 16°
2026-05-04 17:01 64.77299 12.97073 38591 ft 490 kts 16°
2026-05-04 17:02 64.90080 13.08182 38591 ft 490 kts 16°
2026-05-04 17:03 64.99669 13.16588 38582 ft 490 kts 16°
2026-05-04 17:03 65.09259 13.25063 38582 ft 490 kts 17°
2026-05-04 17:04 65.22045 13.36461 38588 ft 491 kts 17°
2026-05-04 17:05 65.34848 13.47995 38582 ft 492 kts 17°
2026-05-04 17:06 65.44462 13.56735 38574 ft 493 kts 17°
2026-05-04 17:07 65.52983 13.64540 38585 ft 492 kts 17°
2026-05-04 17:07 65.60418 13.71395 38594 ft 492 kts 17°
2026-05-04 17:08 65.70018 13.80307 38588 ft 493 kts 17°
2026-05-04 17:09 65.76414 13.86285 38596 ft 493 kts 17°
2026-05-04 17:09 65.82811 13.92295 38594 ft 493 kts 17°
2026-05-04 17:10 65.98813 14.07472 38583 ft 494 kts 17°
2026-05-04 17:11 66.05212 14.13598 38581 ft 494 kts 17°
2026-05-04 17:12 66.14816 14.22856 38581 ft 494 kts 18°
2026-05-04 17:13 66.30819 14.38450 38584 ft 494 kts 18°
2026-05-04 17:14 66.43610 14.51070 38581 ft 495 kts 18°
2026-05-04 17:15 66.53210 14.60633 38571 ft 495 kts 18°
2026-05-04 17:16 66.65980 14.73478 38565 ft 494 kts 18°
2026-05-04 17:17 66.78684 14.86401 38541 ft 493 kts 19°
2026-05-04 17:18 66.91395 14.99474 38561 ft 493 kts 19°
2026-05-04 17:19 67.04036 15.12623 38562 ft 492 kts 19°
2026-05-04 17:20 67.16703 15.25945 38515 ft 488 kts 19°
2026-05-04 17:20 67.22910 15.32538 37712 ft 479 kts 19°
2026-05-04 17:20 67.25992 15.35820 37072 ft 480 kts 19°
2026-05-04 17:21 67.32133 15.42389 36183 ft 473 kts 19°
2026-05-04 17:21 67.38149 15.48867 35475 ft 463 kts 19°
2026-05-04 17:22 67.41117 15.52075 35109 ft 459 kts 19°
2026-05-04 17:22 67.44058 15.55259 34729 ft 456 kts 19°
2026-05-04 17:23 67.52744 15.64711 33724 ft 446 kts 21°
2026-05-04 17:23 67.55595 15.67832 33337 ft 443 kts 21°
2026-05-04 17:23 67.61236 15.74031 32587 ft 435 kts 21°
2026-05-04 17:24 67.64014 15.77096 32240 ft 431 kts 21°
2026-05-04 17:24 67.72219 15.86194 31141 ft 422 kts 21°
2026-05-04 17:25 67.74912 15.89196 30797 ft 418 kts 21°
2026-05-04 17:25 67.80226 15.95140 30087 ft 412 kts 21°
2026-05-04 17:26 67.85471 16.01037 29388 ft 406 kts 22°
2026-05-04 17:26 67.92721 16.12091 28187 ft 396 kts 31°
2026-05-04 17:27 67.97313 16.19772 27429 ft 389 kts 31°
2026-05-04 17:27 68.01871 16.27317 26690 ft 382 kts 31°
2026-05-04 17:28 68.06360 16.34706 25958 ft 376 kts 31°
2026-05-04 17:29 68.12393 16.44651 24997 ft 368 kts 32°
2026-05-04 17:29 68.18855 16.55365 23979 ft 358 kts 32°
2026-05-04 17:30 68.24457 16.64712 22952 ft 349 kts 32°
2026-05-04 17:31 68.28588 16.71640 22087 ft 348 kts 32°
2026-05-04 17:31 68.34675 16.81904 20910 ft 343 kts 32°
2026-05-04 17:32 68.38702 16.88730 20141 ft 340 kts 33°
2026-05-04 17:33 68.44595 16.98771 19316 ft 327 kts 33°
2026-05-04 17:33 68.46504 17.02036 19044 ft 323 kts 33°
2026-05-04 17:34 68.52104 17.11657 18265 ft 312 kts 33°
2026-05-04 17:34 68.53930 17.14806 17950 ft 311 kts 33°
2026-05-04 17:35 68.59358 17.24205 16928 ft 301 kts 33°
2026-05-04 17:35 68.62822 17.30230 16347 ft 289 kts 33°
2026-05-04 17:35 68.64499 17.33155 16057 ft 283 kts 33°
2026-05-04 17:36 68.66141 17.36025 15784 ft 278 kts 33°
2026-05-04 17:36 68.67756 17.38852 15498 ft 273 kts 33°
2026-05-04 17:36 68.69349 17.41645 15232 ft 270 kts 33°
2026-05-04 17:36 68.70919 17.44404 14965 ft 267 kts 33°
2026-05-04 17:37 68.72478 17.47147 14701 ft 264 kts 33°
2026-05-04 17:37 68.74024 17.49872 14448 ft 264 kts 33°
2026-05-04 17:37 68.75549 17.52564 14200 ft 263 kts 33°
2026-05-04 17:37 68.77091 17.55292 13949 ft 264 kts 33°
2026-05-04 17:38 68.78641 17.58037 13705 ft 265 kts 32°
2026-05-04 17:38 68.80195 17.60796 13453 ft 265 kts 32°
2026-05-04 17:38 68.81741 17.63543 13181 ft 265 kts 32°
2026-05-04 17:38 68.83291 17.66302 12906 ft 264 kts 32°
2026-05-04 17:39 68.86382 17.71818 12351 ft 264 kts 32°
2026-05-04 17:39 68.87914 17.74559 12064 ft 261 kts 32°
2026-05-04 17:39 68.89427 17.77271 11774 ft 256 kts 32°
2026-05-04 17:40 68.90911 17.79937 11491 ft 252 kts 32°
2026-05-04 17:40 68.92377 17.82572 11230 ft 250 kts 32°
2026-05-04 17:40 68.93784 17.85107 10977 ft 249 kts 32°
2026-05-04 17:40 68.95231 17.87716 10745 ft 247 kts 32°
2026-05-04 17:41 68.96666 17.90309 10489 ft 246 kts 32°
2026-05-04 17:41 68.98090 17.92886 10261 ft 244 kts 33°
2026-05-04 17:41 68.99512 17.95462 10034 ft 243 kts 33°
2026-05-04 17:41 69.00930 17.98036 9797 ft 243 kts 33°
2026-05-04 17:42 69.02343 18.00604 9576 ft 243 kts 33°
2026-05-04 17:42 69.03762 18.03188 9356 ft 243 kts 33°
2026-05-04 17:42 69.05177 18.05769 9107 ft 243 kts 33°
2026-05-04 17:42 69.06586 18.08343 8821 ft 241 kts 33°
2026-05-04 17:43 69.07979 18.10896 8548 ft 236 kts 33°
2026-05-04 17:43 69.09335 18.13381 8320 ft 231 kts 33°
2026-05-04 17:43 69.10658 18.15808 8103 ft 224 kts 33°
2026-05-04 17:43 69.11944 18.18169 7894 ft 219 kts 33°
2026-05-04 17:44 69.13212 18.20501 7678 ft 220 kts 33°
2026-05-04 17:44 69.14534 18.22936 7249 ft 233 kts 33°
2026-05-04 17:44 69.15891 18.25441 7129 ft 233 kts 33°
2026-05-04 17:44 69.17240 18.27934 7015 ft 231 kts 33°
2026-05-04 17:45 69.18582 18.30417 6903 ft 231 kts 33°
2026-05-04 17:45 69.19934 18.32925 6797 ft 234 kts 33°
2026-05-04 17:45 69.21296 18.35454 6682 ft 235 kts 33°
2026-05-04 17:45 69.22658 18.37986 6570 ft 234 kts 33°
2026-05-04 17:46 69.24015 18.40513 6431 ft 234 kts 33°
2026-05-04 17:46 69.25354 18.43011 6315 ft 228 kts 33°
2026-05-04 17:46 69.26664 18.45458 6194 ft 223 kts 33°
2026-05-04 17:46 69.27948 18.47859 6067 ft 220 kts 33°
2026-05-04 17:47 69.29217 18.50237 5954 ft 219 kts 34°
2026-05-04 17:47 69.30481 18.52609 5834 ft 218 kts 34°
2026-05-04 17:47 69.31733 18.54961 5761 ft 215 kts 34°
2026-05-04 17:47 69.32989 18.57325 5648 ft 219 kts 34°
2026-05-04 17:48 69.34271 18.59742 5530 ft 222 kts 34°
2026-05-04 17:48 69.35513 18.62083 5403 ft 220 kts 34°
2026-05-04 17:48 69.36537 18.64014 5300 ft 219 kts 34°
2026-05-04 17:48 69.37799 18.66402 5181 ft 218 kts 34°
2026-05-04 17:49 69.39074 18.68818 5067 ft 221 kts 34°
2026-05-04 17:49 69.40345 18.71230 4987 ft 218 kts 34°
2026-05-04 17:49 69.41612 18.73556 4989 ft 217 kts 28°
2026-05-04 17:49 69.43032 18.74889 4999 ft 210 kts 12°
2026-05-04 17:50 69.44409 18.75775 4976 ft 196 kts 15°
2026-05-04 17:50 69.45695 18.76708 4965 ft 188 kts 15°
2026-05-04 17:50 69.46952 18.77583 4993 ft 186 kts 14°
2026-05-04 17:50 69.48214 18.78439 4984 ft 187 kts 14°
2026-05-04 17:51 69.49459 18.79273 4933 ft 179 kts 14°
2026-05-04 17:51 69.50649 18.80067 4710 ft 173 kts 14°
2026-05-04 17:51 69.51808 18.80844 4372 ft 167 kts 15°
2026-05-04 17:51 69.52936 18.81600 4003 ft 167 kts 15°
2026-05-04 17:52 69.54066 18.82355 3727 ft 167 kts 15°
2026-05-04 17:52 69.55195 18.83111 3445 ft 166 kts 15°
2026-05-04 17:52 69.56295 18.83847 3106 ft 160 kts 15°
2026-05-04 17:52 69.57358 18.84557 2831 ft 155 kts 15°
2026-05-04 17:53 69.58410 18.85262 2551 ft 156 kts 15°
2026-05-04 17:53 69.59467 18.85968 2254 ft 156 kts 15°
2026-05-04 17:53 69.60525 18.86676 1951 ft 155 kts 15°
2026-05-04 17:53 69.61567 18.87373 1652 ft 153 kts 15°
2026-05-04 17:54 69.62600 18.88064 1360 ft 151 kts 15°
2026-05-04 17:54 69.63635 18.88765 1038 ft 159 kts 14°
2026-05-04 17:54 69.64756 18.89497 674 ft 168 kts 13°
2026-05-04 17:54 69.65896 18.90252 355 ft 171 kts 14°
2026-05-04 17:55 69.67053 18.91041 111 ft 171 kts 13°
2026-05-04 17:55 69.68143 18.91761 28 ft 150 kts 13°
2026-05-04 17:55 69.68793 18.92174 20 ft 28 kts 16°
2026-05-04 17:55 69.68941 18.92291 23 ft 17 kts 13°
2026-05-04 17:56 69.69007 18.92336 21 ft 6 kts 13°
2026-05-04 17:56 69.69009 18.92337 21 ft 0 kts 13°
2026-05-04 17:56 69.69011 18.92340 21 ft 2 kts 21°
2026-05-04 17:56 69.69031 18.92382 21 ft 4 kts 353°
2026-05-04 17:57 69.69023 18.92320 22 ft 7 kts 198°
2026-05-04 17:57 69.68939 18.92301 23 ft 17 kts 190°
2026-05-04 17:57 69.68814 18.92217 24 ft 16 kts 193°
2026-05-04 17:57 69.68770 18.91919 19 ft 14 kts 279°
2026-05-04 17:58 69.68746 18.91687 20 ft 13 kts 205°
2026-05-04 17:58 69.68650 18.91630 24 ft 15 kts 191°
2026-05-04 17:58 69.68535 18.91559 25 ft 18 kts 192°
2026-05-04 17:58 69.68414 18.91503 25 ft 17 kts 185°
2026-05-04 17:59 69.68310 18.91486 26 ft 15 kts 187°
2026-05-04 17:59 69.68212 18.91424 29 ft 14 kts 194°
2026-05-04 17:59 69.68054 18.91315 32 ft 11 kts 195°
2026-05-04 18:00 69.67996 18.91269 33 ft 6 kts 210°
2026-05-04 18:00 69.67996 18.91144 34 ft 7 kts 282°
2026-05-04 18:00 69.68005 18.91026 35 ft 5 kts 283°
2026-05-04 18:00 69.68010 18.90965 35 ft 1 kts 282°
2026-05-04 18:01 69.68011 18.90954 35 ft 0 kts 283°